Location: ??????
(41.8604°N, 44.4552°E)
Time: 05:25:22
(UTC+00:00)

Daily predictions for brighter satellites

Satellite Brightness Start Highest point End
(mag) Time Altitude Azimuth Time Altitude Azimuth Time Altitude Azimuth
Meteor 1-28 Rocket 3.6 00:02:45 35° SW 00:03:35 41° W 00:07:08 10° NNW
Helios 1B rocket 4.2 00:05:07 10° NNW 00:08:01 19° WNW 00:09:14 17° W
GEOS 3 Rocket 4.0 00:05:31 10° SE 00:10:50 70° NE 00:16:08 10° NNW
Cosmos 1975 Rocket 4.5 00:08:08 10° N 00:12:17 38° ENE 00:16:21 10° SE
Cosmos 1943 4.1 00:10:36 10° NNW 00:16:11 52° ENE 00:21:43 10° SE
SWARM A 4.4 00:15:21 31° SSW 00:16:38 52° W 00:19:53 10° N
Iridium 4 Rocket 4.1 00:11:33 10° NNW 00:16:44 45° W 00:20:37 19° SSW
SL-8 R/B 3.7 00:14:06 25° SW 00:16:53 73° SSE 00:21:42 10° ENE
Cosmos 1378 Rocket 3.8 00:12:47 10° NNW 00:17:01 49° W 00:19:45 20° SSW
Cosmos 44 4.2 00:14:52 10° NNW 00:20:02 54° NE 00:24:52 10° SE
Cosmos 407 Rocket 3.6 00:17:03 21° SSW 00:20:35 66° WNW 00:25:51 10° NNE
Cosmos 1908 Rocket 3.6 00:18:56 22° SSW 00:21:38 61° W 00:25:57 10° N
SL-8 Rocket 4.0 00:16:24 10° S 00:22:35 85° E 00:28:47 10° N
Cosmos 2366 rocket 4.3 00:18:10 10° S 00:24:28 72° E 00:30:49 10° NNE
Cosmos 1707 2.8 00:21:42 10° NNW 00:25:27 53° W 00:28:21 16° SSW
IRS-P3 4.1 00:22:10 10° N 00:27:30 74° WNW 00:32:06 14° SSW
MSX 3.9 00:21:53 10° N 00:27:33 63° WNW 00:32:15 15° SSW
BREEZE-M DEB (TANK) 2.6 00:26:58 23° WSW 00:28:25 62° NNW 00:30:42 10° NE
ATLAS 5 CENTAUR R/B 4.1 00:26:40 10° W 00:28:59 13° WSW 00:28:59 13° WSW
USA 215 3.4 00:23:37 10° NE 00:30:10 72° SE 00:35:46 15° SW
CZ-4C R/B 3.1 00:22:55 10° NW 00:30:22 89° NE 00:38:56 10° SSE
IDEFIX/ARIANE 42P 3.4 00:32:51 10° N 00:37:31 35° WNW 00:41:13 15° SW
Cosmos 1733 3.8 00:39:47 10° S 00:43:33 57° E 00:47:20 10° NNE
Cosmos 2341 Rocket 4.2 00:38:05 12° SSW 00:43:44 53° WNW 00:49:49 10° N
Cosmos 1356 Rocket 4.5 00:41:41 16° WSW 00:44:06 28° WNW 00:47:36 10° NNW
Cosmos 2218 Rocket 4.1 00:41:51 10° SSW 00:48:14 74° W 00:54:35 10° N
Cosmos 1025 Rocket 3.7 00:47:22 10° N 00:51:38 57° E 00:55:53 10° SSE
Cosmos 1400 Rocket 2.8 00:48:58 10° S 00:52:49 82° E 00:56:44 10° NNE
Meteor 2-20 4.5 00:49:06 10° NNW 00:55:13 70° W 01:01:19 10° S
Cosmos 1727 Rocket 4.2 00:49:37 10° N 00:55:52 77° E 01:02:08 10° SSE
Okean 2 Rocket 3.9 00:52:29 10° S 00:56:52 53° E 01:01:17 10° NNE
ALOS 2.8 00:54:32 10° NNE 00:59:11 62° E 01:03:47 10° S
Cosmos 1844 Rocket 3.9 00:54:34 10° S 00:59:49 41° ESE 01:05:07 10° NE
SL-08 R/B 3.6 00:55:09 10° S 00:59:55 50° W 01:04:45 10° NNW
Sich 1 Rocket 3.6 00:56:15 10° S 01:00:37 85° E 01:05:03 10° N
Cosmos 1603 3.7 00:56:39 10° NNW 01:02:14 67° WSW 01:07:49 10° SSE
USA 267 4.4 00:56:27 10° E 01:02:38 47° NNE 01:08:50 10° NW
Cosmos 1782 Rocket 4.2 00:59:58 10° SSW 01:04:02 38° WNW 01:08:08 10° N
CZ-2D R/B 3.9 01:01:29 10° N 01:05:17 44° WNW 01:09:07 10° SW
Cosmos 1340 3.0 01:02:36 10° NNW 01:06:12 44° W 01:09:46 10° SSW
FENGYUN 3A 3.8 01:02:20 10° NNE 01:07:49 82° ESE 01:13:13 10° SSW
CZ-2C R/B 2.3 01:04:47 10° N 01:09:19 66° WNW 01:13:53 10° SSW
Cosmos 1626 2.2 01:11:09 10° NNW 01:14:47 56° W 01:18:23 10° S
Cosmos 1674 3.5 01:11:44 10° NNW 01:15:10 31° W 01:18:35 10° SSW
Cosmos 2151 Rocket 4.0 01:11:08 10° S 01:15:28 67° E 01:19:51 10° NNE
SL-16 R/B 4.0 01:17:14 10° W 01:18:31 11° W 01:19:49 10° WSW
Lacrosse 5 4.0 01:15:43 10° WNW 01:19:20 19° NNW 01:22:57 10° NNE
Cosmos 1900 4.4 01:16:31 10° SW 01:21:31 72° WNW 01:26:28 10° NNE
